Location: Unspecified
(0.0000°N, 0.0000°E)
Time: 20:23:26
(UTC+00:00)

FORTE - Visible Passes

Search period start: 21 February 2024 00:00
Search period end: 02 March 2024 00:00
Orbit: 785 x 818 km, 70.0° (Epoch: 20 February)

Date Brightness Start Highest point End Pass type
(mag) Time Alt. Az. Time Alt. Az. Time Alt. Az.
28 Feb 9.3 19:45:10 10° SSE 19:45:25 11° SSE 19:45:25 11° SSE visible
29 Feb 9.0 19:19:06 10° SE 19:19:49 12° SE 19:19:49 12° SE visible
29 Feb 9.7 21:00:13 10° SW 21:00:51 13° SW 21:00:51 13° SW visible
01 Mar 8.7 20:32:40 10° SSW 20:35:26 29° SW 20:35:26 29° SW visible
